Regional Weather Roundup
Issued by NWS Lake Charles, LA

Home | Current Version | Previous Version | Text Only | Print | Product List | Glossary On
Versions: 1 2 3 4 5 6 7 8 9 10 11 12 13 14 15 16 17 18 19 20 21 22 23 24 25 26 27 28 29 30 31 32 33 34 35 36 37 38 39 40 41 42 43 44 45 46 47 48 49 50
000
ASUS44 KLCH 180010
RWRLCH
RWRLCH
REGIONAL WEATHER ROUNDUP
NATIONAL WEATHER SERVICE LAKE CHARLES LA
700 PM CDT WED SEP 17 2014

Note: "fair" indicates few or no clouds below 12,000 feet with no
significant weather and/or obstructions to visibility.


ACROSS SOUTHEAST TEXAS

CITY           SKY/WX    TMP DP  RH WIND       PRES   REMARKS
BEAUMONT       LGT RAIN  78  75  90 CALM      29.90F
BEAUMONT CITY    N/A     75  74  96 CALM      29.91F
ORANGE         CLOUDY    78  78 100 CALM      29.92F
JASPER         MOCLDY    74  72  93 CALM      29.95S
$$

ACROSS CENTRAL LOUISIANA

CITY           SKY/WX    TMP DP  RH WIND       PRES   REMARKS
LEESVILLE      PTCLDY    79  73  82 SW5       29.91R
FULLERTON        N/A     82  75  79 CALM      29.88R
ALEXANDRIA INT CLEAR     83  73  72 NE5       29.88S
ESLER FIELD    CLEAR     81  75  82 CALM      29.91R
DERIDDER         N/A     76  72  87 CALM      29.93F FOG
OAKDALE        CLEAR     80  74  83 SW7       29.91R
OPELOUSAS        N/A     80  74  82 SW5       29.90S
$$

ACROSS SOUTHWEST AND SOUTH CENTRAL LOUISIANA

CITY           SKY/WX    TMP DP  RH WIND       PRES   REMARKS
SULPHUR        CLOUDY    77  76  96 CALM      29.91S
LAKE CHARLES   LGT RAIN  77  75  93 CALM      29.91S
CHENNAULT INT  MOCLDY    77  75  94 SW5       29.91S
CAMERON PHI    CLEAR     79  75  89 SW6       29.94S
DEQUINCY       CLOUDY    74  73  97 CALM      29.91S
JENNINGS         N/A     77  74  90 SW3       29.91S
LAFAYETTE      PTCLDY    82  75  79 SW7       29.91R
NEW IBERIA     CLEAR     81  75  82 W3        29.91S
ABBEVILLE        N/A     78  75  90 SW3       29.91S
PATTERSON      PTCLDY    81  73  78 SW3       29.94R
SALT POINT       N/A     85  75  72 VRB5      29.90S
$$

SELECTED SITES ACROSS THE REGION

CITY           SKY/WX    TMP DP  RH WIND       PRES   REMARKS
HOUSTON BUSH   CLOUDY    77  75  93 SE6       29.90S
HOUSTON HOBBY  CLOUDY    78  74  87 SE6       29.88F
GALVESTON      LGT RAIN  80  77  90 SE9       29.90F
COLLEGE STAT   CLEAR     80  72  76 SE16      29.89R
CONROE         LGT RAIN  75  74  96 SE3       29.92R
HUNTSVILLE     LGT RAIN  77  73  87 VRB5      29.92R
LUFKIN         MOCLDY    81  72  74 S10G22    29.91R
SHREVEPORT     MOCLDY    86  68  54 SE9       29.88R
MONROE         PTCLDY    83  71  67 CALM      29.90S
NATCHEZ MS     CLEAR     81  73  78 CALM      29.91S
BATON ROUGE    MOCLDY    83  74  74 NE3       29.91R
N.O. INTL ARPT MOCLDY    84  70  62 N5        29.90S
SLIDELL        MOCLDY    82  74  76 CALM      29.90S
$$

MARINE REPORTS

STATION/POSITION TIME  TEMP    WIND        PRES    VSBY  WAVE
                       AIR SEA DIR/SP/G                  HT/PER
                 (UTC) (F)     (DEG/KT/KT) (MB)    (MI)  (FT/S)
BUOY 30 S HIGH I 0000   81 84  130/  6/  8 1012.5F         2/ 5
SEA RIM ST PARK  0000   77     100/  2/  2 1013.2F
PORT ARTHUR      0000      83  210/  3/  4 1012.8F
SABINE PASS N    0000   78 83  220/  2/  3 1012.9F
TEXAS POINT      0000   78 82  170/  5/  6 1012.9F
CALCASIEU PASS   0000   80 83  210/  5/  6 1013.9F
LK CHARLES BEACH 0000   77 84              1012.7F
MARSH ISLAND     NOT AVBL
FRESH WATER LOCK 0000   80 83  220/  6/  8 1012.9S
AMERADA PASS     0000   81 87  200/  2/  3 1012.8R
$$


USA.gov is the U.S. government's official web portal to all federal, state and local government web resources and services.